This is the latest recevied weather packets stored in our database for station/object K5FEP. If no packets are shown the sender has not sent any weather packets the latest 10 day(s).
| Time | Temp. | Humidity | Pressure | Rain* | Wind** | Luminosity | Snow |
|---|---|---|---|---|---|---|---|
| 1777867801 | 5.56° C | 81% | 1016 hPa | 0 mm | - | 0 W/m² | - |
| 1777867498 | 5.56° C | 81% | 1015.7 hPa | 0 mm | - | 0 W/m² | - |
| 1777867194 | 5.56° C | 80% | 1016 hPa | 0 mm | - | 0 W/m² | - |
| 1777866892 | 5.56° C | 80% | 1016 hPa | 0 mm | - | 0 W/m² | - |
| 1777866588 | 6.11° C | 81% | 1016.1 hPa | 0 mm | - | 0 W/m² | - |
| 1777866286 | 6.11° C | 81% | 1016.2 hPa | 0 mm | - | 0 W/m² | - |
| 1777865983 | 6.11° C | 80% | 1016.1 hPa | 0 mm | - | 0 W/m² | - |
| 1777865680 | 6.11° C | 78% | 1015.9 hPa | 0 mm | - | 0 W/m² | - |
| 1777865378 | 6.67° C | 78% | 1016.1 hPa | 0 mm | - | 0 W/m² | - |
| 1777865074 | 6.67° C | 78% | 1016.2 hPa | 0 mm | - | 0 W/m² | - |
| 1777864771 | 6.67° C | 77% | 1016.1 hPa | 0 mm | - | 0 W/m² | - |
| 1777864468 | 6.67° C | 77% | 1016.2 hPa | 0 mm | - | 0 W/m² | - |
| 1777864165 | 6.67° C | 78% | 1016.2 hPa | 0 mm | - | 0 W/m² | - |
| 1777863862 | 6.67° C | 78% | 1016.1 hPa | 0 mm | - | 0 W/m² | - |
| 1777863558 | 6.67° C | 76% | 1016 hPa | 0 mm | - | 0 W/m² | - |
| 1777863255 | 7.22° C | 77% | 1015.9 hPa | 0 mm | - | 0 W/m² | - |
| 1777862952 | 7.78° C | 72% | 1016.1 hPa | 0 mm | - | 0 W/m² | - |
| 1777862649 | 7.78° C | 71% | 1015.9 hPa | 0 mm | - | 0 W/m² | - |
| 1777862346 | 7.78° C | 71% | 1015.9 hPa | 0 mm | - | 0 W/m² | - |
| 1777862042 | 7.78° C | 72% | 1016 hPa | 0 mm | - | 0 W/m² | - |
| 1777861737 | 7.78° C | 68% | 1016.2 hPa | 0 mm | - | 0 W/m² | - |
| 1777861434 | 8.33° C | 67% | 1015.8 hPa | 0 mm | - | 0 W/m² | - |
| 1777861131 | 8.33° C | 66% | 1015.7 hPa | 0 mm | - | 0 W/m² | - |
| 1777860828 | 8.89° C | 65% | 1015.9 hPa | 0 mm | - | 0 W/m² | - |
| 1777860525 | 8.89° C | 63% | 1015.9 hPa | 0 mm | - | 0 W/m² | - |
* Rain latest hour (hover to see other rain measurements)
** Current wind speed in m/s (hover to see current wind gust speed)